Date Time,Air Temp,Sky Temp,Clarity,Light Level,Rain Sensor,Readings
2011-04-24 00:00:14,27.7,-2.6,30.2,0.0,2.3,112
2011-04-24 00:05:14,27.6,-1.6,29.2,0.0,2.3,111
2011-04-24 00:10:14,27.6,-2.5,30.1,0.0,2.3,112
2011-04-24 00:15:14,27.4,-3.9,31.3,0.0,2.3,111
2011-04-24 00:20:14,27.0,-3.5,30.4,0.0,2.3,112
2011-04-24 00:25:14,26.7,-3.6,30.4,0.0,2.3,112
2011-04-24 00:30:14,26.7,-4.1,30.8,0.0,2.3,112
2011-04-24 00:35:14,26.6,-3.3,30.0,0.0,2.3,112
2011-04-24 00:40:14,26.6,-2.2,28.8,0.0,2.3,111
2011-04-24 00:45:14,26.8,-1.8,28.6,0.0,2.3,111
2011-04-24 00:50:14,26.9,-1.7,28.6,0.0,2.3,112
2011-04-24 00:55:14,27.0,-1.6,28.6,0.0,2.3,111
2011-04-24 01:00:14,27.2,-2.1,29.2,0.0,2.3,112
2011-04-24 01:05:14,27.4,-2.0,29.3,0.0,2.3,111
2011-04-24 01:10:14,27.5,-2.0,29.6,0.0,2.3,111
2011-04-24 01:15:14,27.8,-1.9,29.7,0.0,2.3,112
2011-04-24 01:20:14,27.9,-2.1,30.0,0.0,2.3,111
2011-04-24 01:25:14,28.0,-2.1,30.1,0.0,2.3,111
2011-04-24 01:30:14,28.0,-2.1,30.1,0.0,2.3,111
2011-04-24 01:35:14,27.9,-2.2,30.1,0.0,2.3,112
2011-04-24 01:40:14,27.6,-1.7,29.2,0.0,2.3,112
2011-04-24 01:45:14,27.3,-1.5,28.8,0.0,2.3,111
2011-04-24 01:50:14,27.4,-1.6,29.0,0.0,2.3,112
2011-04-24 01:55:14,27.7,-1.6,29.3,0.0,2.3,112
2011-04-24 02:00:14,27.9,-1.8,29.7,0.0,2.3,112
2011-04-24 02:05:14,28.1,-1.7,29.8,0.0,2.3,111
2011-04-24 02:10:14,28.2,-1.7,29.9,0.0,2.3,112
2011-04-24 02:15:14,28.1,-4.1,32.2,0.0,2.3,111
2011-04-24 02:20:14,27.2,-3.9,31.0,0.0,2.3,112
2011-04-24 02:25:14,26.4,-3.5,30.0,0.0,2.3,111
2011-04-24 02:30:14,26.3,-3.2,29.5,0.0,2.3,113
2011-04-24 02:35:14,26.3,-3.9,30.2,0.0,2.3,111
2011-04-24 02:40:14,26.2,-3.8,30.0,0.0,2.3,112
2011-04-24 02:45:14,26.1,-3.8,29.9,0.0,2.3,112
2011-04-24 02:50:14,25.9,-4.3,30.2,0.0,2.3,112
2011-04-24 02:55:14,25.7,-4.5,30.2,0.0,2.4,112
2011-04-24 03:00:14,25.6,-4.5,30.1,0.0,2.5,113
2011-04-24 03:05:14,25.4,-4.6,30.0,0.0,2.4,112
2011-04-24 03:10:14,25.3,-4.7,30.0,0.0,2.3,111
2011-04-24 03:15:14,25.2,-4.9,30.0,0.0,2.3,112
2011-04-24 03:20:14,25.0,-5.0,30.0,0.0,2.3,111
2011-04-24 03:25:15,25.0,-4.9,29.9,0.0,2.3,112
2011-04-24 03:30:15,24.9,-4.7,29.5,0.0,2.2,112
2011-04-24 03:35:15,24.8,-4.9,29.7,0.0,2.3,111
2011-04-24 03:40:35,24.7,-5.1,29.8,0.0,2.4,112
2011-04-24 03:45:35,24.7,-4.9,29.5,0.0,2.3,111
2011-04-24 03:50:35,24.7,-4.9,29.5,0.0,2.3,111
2011-04-24 03:55:35,24.6,-4.8,29.4,0.0,2.3,112
2011-04-24 04:00:35,24.6,-4.9,29.5,0.0,2.3,111
2011-04-24 04:05:35,24.6,-5.1,29.7,0.0,2.3,111
2011-04-24 04:10:35,24.6,-5.2,29.8,0.0,2.3,111
2011-04-24 04:15:35,24.5,-5.4,29.9,0.0,2.3,111
2011-04-24 04:20:35,24.4,-5.4,29.8,0.0,2.3,112
2011-04-24 04:25:35,24.3,-5.5,29.8,0.0,2.3,112
2011-04-24 04:30:35,24.2,-5.6,29.8,0.1,2.3,111
2011-04-24 04:35:35,24.2,-5.5,29.7,0.1,2.3,111
2011-04-24 04:40:35,24.1,-5.8,29.9,0.1,2.3,112
2011-04-24 04:45:35,24.1,-5.6,29.8,0.2,2.3,112
2011-04-24 04:50:35,24.1,-5.7,29.8,0.3,2.3,111
2011-04-24 04:55:35,24.0,-5.9,29.9,0.6,2.3,112
2011-04-24 05:00:35,24.0,-6.0,30.0,0.9,2.3,111
2011-04-24 05:05:35,23.9,-6.0,29.9,1.5,2.3,112
2011-04-24 05:10:35,23.8,-6.1,29.9,2.6,2.3,111
2011-04-24 05:15:35,23.7,-6.5,30.1,4.5,2.3,112
2011-04-24 05:20:35,23.6,-6.3,29.9,7.7,2.3,112
2011-04-24 05:25:35,23.6,-6.3,29.9,12.2,2.3,112
2011-04-24 05:30:35,23.6,-6.3,29.8,17.4,2.3,111
2011-04-24 05:35:35,23.5,-6.2,29.7,22.2,2.3,112
2011-04-24 05:40:35,23.5,-6.3,29.8,25.9,2.3,112
2011-04-24 05:45:35,23.5,-6.1,29.6,28.2,2.3,112
2011-04-24 05:50:35,23.5,-6.0,29.5,29.7,2.3,111
2011-04-24 05:55:35,23.5,-6.1,29.6,30.5,2.3,111
2011-04-24 06:00:35,23.4,-6.1,29.5,31.0,2.3,112
2011-04-24 06:05:35,23.4,-6.1,29.5,31.3,2.3,111
2011-04-24 06:10:35,23.4,-6.2,29.6,31.6,2.3,112
2011-04-24 06:15:35,23.4,-6.2,29.6,31.8,2.3,112
2011-04-24 06:20:35,23.4,-6.3,29.7,31.9,2.3,112
2011-04-24 06:25:35,23.5,-6.4,29.9,32.0,2.3,111
2011-04-24 06:30:35,23.6,-6.6,30.2,32.0,2.3,112
2011-04-24 06:35:35,23.7,-6.3,29.9,32.1,2.3,112
2011-04-24 06:40:35,23.9,-6.5,30.4,32.1,2.3,112
2011-04-24 06:45:35,23.9,-6.5,30.4,32.2,2.3,112
2011-04-24 06:50:35,23.9,-6.6,30.5,32.2,2.3,112
2011-04-24 06:55:35,24.0,-6.5,30.5,32.2,2.3,112
2011-04-24 07:00:35,24.0,-6.5,30.6,32.3,2.3,112
2011-04-24 07:05:35,24.1,-6.4,30.5,32.3,2.3,112
2011-04-24 07:10:35,24.1,-6.3,30.4,32.3,2.3,111
2011-04-24 07:15:35,24.2,-6.2,30.4,32.3,2.3,112
2011-04-24 07:20:35,24.3,-6.2,30.5,32.3,2.3,112
2011-04-24 07:25:35,24.4,-6.0,30.4,32.3,2.3,111
2011-04-24 07:30:35,24.7,-5.8,30.5,32.3,2.3,112
2011-04-24 07:35:35,25.0,-5.6,30.6,32.3,2.3,112
2011-04-24 07:40:35,25.4,-5.4,30.8,32.4,2.3,111
2011-04-24 07:45:35,25.7,-5.8,31.4,32.4,2.2,112
2011-04-24 07:50:35,25.3,-5.7,31.0,32.4,2.3,111
2011-04-24 07:55:35,25.8,-5.7,31.5,32.4,2.3,112
2011-04-24 08:00:35,25.6,-6.2,31.8,32.4,2.3,111
2011-04-24 08:05:35,25.4,-6.1,31.4,32.4,2.2,112
2011-04-24 08:10:35,25.2,-5.8,31.0,32.4,2.3,111
2011-04-24 08:15:35,25.2,-5.8,31.0,32.4,2.4,112
2011-04-24 08:20:35,25.3,-5.9,31.2,32.4,2.3,111
2011-04-24 08:25:35,25.3,-5.7,31.0,32.4,2.3,111
2011-04-24 08:30:35,25.5,-5.3,30.8,32.4,2.2,112
2011-04-24 08:35:35,25.6,-5.1,30.8,32.4,2.3,111
2011-04-24 08:40:35,25.8,-4.8,30.6,32.4,2.3,112
2011-04-24 08:45:35,26.0,-4.6,30.6,32.4,2.3,112
2011-04-24 08:50:35,26.2,-4.4,30.7,32.4,2.3,112
2011-04-24 08:55:35,26.5,-4.2,30.7,32.4,2.5,112
2011-04-24 09:00:35,26.7,-4.7,31.4,32.4,2.3,111
2011-04-24 09:05:35,26.7,-4.6,31.3,32.4,2.3,113
2011-04-24 09:10:35,26.8,-4.4,31.2,32.4,2.3,112
2011-04-24 09:15:35,27.0,-4.2,31.2,32.5,2.3,112
2011-04-24 09:20:35,27.2,-3.9,31.1,32.5,2.3,112
2011-04-24 09:25:35,27.4,-3.7,31.1,32.5,2.3,111
2011-04-24 09:30:35,27.7,-3.3,31.0,32.5,2.3,112
2011-04-24 09:35:35,27.9,-3.0,31.0,32.5,2.3,112
2011-04-24 09:40:35,28.2,-1.9,30.2,32.5,2.3,111
2011-04-24 09:45:35,29.0,-1.0,30.0,32.5,2.3,112
2011-04-24 09:50:35,30.0,-1.2,31.2,32.5,2.3,111
2011-04-24 09:55:35,30.8,-0.2,31.0,32.5,2.3,112
2011-04-24 10:00:35,31.4,-0.2,31.6,32.5,2.3,112
2011-04-24 10:05:35,31.7,-0.5,32.2,32.5,2.3,112
2011-04-24 10:10:35,32.0,-0.1,32.1,32.5,1.9,112
2011-04-24 10:15:35,32.0,0.1,32.0,32.6,1.9,112
2011-04-24 10:20:35,32.2,0.1,32.0,32.6,1.9,111
2011-04-24 10:25:35,32.0,-0.1,32.1,32.6,1.6,112
2011-04-24 10:30:35,32.1,0.4,31.7,32.6,1.6,111
2011-04-24 10:35:35,31.7,0.6,31.1,32.6,1.8,111
2011-04-24 10:40:35,31.7,0.8,30.9,32.6,1.8,111
2011-04-24 10:45:35,31.8,0.7,31.1,32.6,1.3,111
2011-04-24 10:50:35,31.8,0.9,30.9,32.6,1.8,111
2011-04-24 10:55:35,31.9,1.8,30.1,32.6,1.2,111
2011-04-24 11:00:35,31.9,1.1,30.8,32.6,1.3,111
2011-04-24 11:05:35,32.0,1.1,30.9,32.6,1.2,111
2011-04-24 11:10:35,32.0,1.2,30.8,32.6,1.6,111
2011-04-24 11:15:35,32.1,1.6,30.5,32.6,1.8,111
2011-04-24 11:20:35,32.3,1.9,30.3,32.6,1.6,111
2011-04-24 11:25:35,32.4,1.6,30.8,32.6,1.4,111
2011-04-24 11:30:35,32.3,1.6,30.8,32.6,1.4,111
2011-04-24 11:35:35,32.4,1.7,30.7,32.6,1.4,110
2011-04-24 11:40:35,32.5,1.9,30.5,32.6,1.3,112
2011-04-24 11:45:35,32.5,2.2,30.3,32.6,1.3,111
2011-04-24 11:50:35,32.7,2.7,30.0,32.6,1.2,111
2011-04-24 11:55:35,33.1,2.7,30.4,32.6,1.3,111
2011-04-24 12:00:35,33.4,2.6,30.8,32.6,1.5,111
2011-04-24 12:05:35,33.7,2.7,31.0,32.6,1.6,112
2011-04-24 12:10:35,34.1,2.1,31.9,32.6,1.7,111
2011-04-24 12:15:35,33.9,3.8,30.1,32.6,1.7,111
2011-04-24 12:20:35,34.0,4.2,29.7,32.6,1.8,112
2011-04-24 12:25:35,34.2,3.9,30.3,32.6,1.9,111
2011-04-24 12:30:35,34.2,4.2,30.0,32.6,1.9,112
2011-04-24 12:35:35,34.4,4.8,29.6,32.6,2.0,112
2011-04-24 12:40:35,34.3,5.0,29.3,32.6,2.1,111
2011-04-24 12:45:35,35.5,5.9,29.6,32.6,2.4,112
2011-04-24 12:50:35,36.3,5.4,30.9,32.6,2.6,111
2011-04-24 12:55:35,36.6,5.6,31.0,32.6,2.7,112
2011-04-24 13:00:35,36.9,5.7,31.2,32.6,2.8,112
2011-04-24 13:05:35,37.0,5.7,31.3,32.6,2.8,111
2011-04-24 13:10:35,37.1,6.2,30.9,32.6,2.8,112
2011-04-24 13:15:35,37.5,6.4,31.1,32.6,2.4,112
2011-04-24 13:20:35,37.8,6.8,31.0,32.6,2.4,111
2011-04-24 13:25:35,38.3,7.3,31.0,32.6,2.4,111
2011-04-24 13:30:35,38.6,7.5,31.1,32.6,2.4,112
2011-04-24 13:35:35,38.6,7.7,30.9,32.6,2.4,111
2011-04-24 13:40:35,38.6,7.6,31.0,32.6,2.4,112
2011-04-24 13:45:35,38.6,7.2,31.5,32.6,2.4,111
2011-04-24 13:50:35,38.5,7.4,31.1,32.6,2.4,111
2011-04-24 13:55:35,38.6,7.8,30.8,32.6,2.4,112
2011-04-24 14:00:35,38.8,7.8,31.0,32.6,2.4,112
2011-04-24 14:05:35,38.8,8.2,30.6,32.6,2.4,111
2011-04-24 14:10:35,38.7,7.7,30.9,32.6,2.4,111
2011-04-24 14:15:35,37.6,7.8,29.8,32.6,2.4,111
2011-04-24 14:20:35,38.1,7.6,30.5,32.6,2.4,112
2011-04-24 14:25:35,38.1,8.3,29.8,32.6,2.4,111
2011-04-24 14:30:35,38.3,7.7,30.6,32.6,2.4,112
2011-04-24 14:35:35,38.3,8.2,30.2,32.6,2.4,111
2011-04-24 14:40:36,38.6,8.2,30.4,32.6,2.4,112
2011-04-24 14:45:36,38.5,7.9,30.6,32.6,2.4,111
2011-04-24 14:50:36,38.4,8.6,29.8,32.6,2.4,111
2011-04-24 14:55:36,38.6,8.1,30.5,32.6,2.4,111
2011-04-24 15:00:36,38.4,8.5,30.0,32.6,2.4,112
2011-04-24 15:05:36,38.6,8.6,29.9,32.6,2.4,111
2011-04-24 15:10:36,38.6,8.4,30.2,32.6,2.4,111
2011-04-24 15:15:36,38.4,8.4,30.0,32.6,2.4,112
2011-04-24 15:20:36,38.4,9.3,29.1,32.6,2.4,111
2011-04-24 15:25:36,38.8,8.9,30.0,32.6,2.4,112
2011-04-24 15:30:36,39.2,9.2,30.1,32.6,2.4,111
2011-04-24 15:35:36,38.4,8.7,29.7,32.6,2.4,112
2011-04-24 15:40:36,38.8,8.1,30.6,32.6,2.4,111
2011-04-24 15:45:36,38.3,7.8,30.5,32.6,2.4,111
2011-04-24 15:50:36,38.0,8.5,29.5,32.6,2.4,112
2011-04-24 15:55:36,38.4,8.7,29.8,32.6,2.4,112
2011-04-24 16:00:36,38.3,8.0,30.2,32.6,2.4,111
2011-04-24 16:05:36,37.9,7.9,30.0,32.6,2.4,111
2011-04-24 16:10:36,37.9,8.2,29.6,32.6,2.4,112
2011-04-24 16:15:36,37.9,8.1,29.8,32.6,2.4,111
2011-04-24 16:20:36,37.9,8.7,29.2,32.6,2.4,112
2011-04-24 16:25:36,38.2,8.2,30.0,32.6,2.4,111
2011-04-24 16:30:36,38.0,7.8,30.3,32.6,2.4,111
2011-04-24 16:35:36,37.7,7.8,29.9,32.6,2.4,112
2011-04-24 16:40:36,37.5,7.7,29.8,32.6,2.4,112
2011-04-24 16:45:36,37.3,7.5,29.8,32.6,2.4,111
2011-04-24 16:50:36,37.0,7.3,29.7,32.6,2.4,111
2011-04-24 16:55:36,36.9,7.5,29.4,32.6,2.4,112
2011-04-24 17:00:36,36.8,7.0,29.8,32.6,2.4,112
2011-04-24 17:05:36,36.4,6.9,29.5,32.6,2.4,111
2011-04-24 17:10:36,36.3,6.6,29.7,32.6,2.4,112
2011-04-24 17:15:36,36.0,6.0,29.9,32.6,2.7,111
2011-04-24 17:20:36,35.5,6.4,29.1,32.6,2.9,111
2011-04-24 17:25:36,35.5,6.5,29.0,32.6,2.9,112
2011-04-24 17:30:36,35.7,6.4,29.4,32.6,2.9,111
2011-04-24 17:35:36,35.6,6.1,29.6,32.6,2.9,112
2011-04-24 17:40:36,35.5,6.3,29.2,32.6,2.8,111
2011-04-24 17:45:36,35.4,5.5,29.9,32.6,2.8,112
2011-04-24 17:50:36,35.1,5.8,29.2,32.6,2.8,111
2011-04-24 17:55:36,34.8,5.4,29.5,32.6,2.7,112
2011-04-24 18:00:36,34.7,5.2,29.5,32.6,2.6,112
2011-04-24 18:05:36,34.5,5.0,29.5,32.6,2.6,112
2011-04-24 18:10:36,34.3,4.8,29.6,32.6,2.5,111
2011-04-24 18:15:36,34.2,4.9,29.3,32.6,2.4,112
2011-04-24 18:20:36,34.2,4.7,29.5,32.6,2.4,111
2011-04-24 18:25:36,34.1,4.1,30.0,32.6,2.4,112
2011-04-24 18:30:36,33.7,3.6,30.2,32.6,2.3,112
2011-04-24 18:35:36,33.4,3.2,30.1,32.5,2.2,111
2011-04-24 18:40:36,33.0,2.9,30.1,32.5,2.1,111
2011-04-24 18:45:36,32.7,2.7,30.1,32.5,1.9,111
2011-04-24 18:50:36,32.4,2.5,29.9,32.5,1.8,112
2011-04-24 18:55:36,32.3,2.4,29.8,32.5,1.7,111
2011-04-24 19:00:36,32.1,2.2,29.9,32.5,1.7,111
2011-04-24 19:05:36,31.9,1.9,30.0,32.5,1.5,111
2011-04-24 19:10:36,31.6,1.4,30.2,32.4,1.4,111
2011-04-24 19:15:36,31.4,1.3,30.1,32.4,1.3,111
2011-04-24 19:20:36,31.1,1.0,30.1,32.4,1.4,111
2011-04-24 19:25:36,30.8,0.7,30.1,32.3,1.6,111
2011-04-24 19:30:36,30.5,0.4,30.1,32.2,1.6,111
2011-04-24 19:35:36,30.2,0.3,29.9,32.2,1.8,111
2011-04-24 19:40:36,30.0,0.0,30.0,32.1,2.3,112
2011-04-24 19:45:36,29.8,-0.0,29.9,32.0,2.3,112
2011-04-24 19:50:36,29.6,-0.0,29.7,32.0,2.3,112
2011-04-24 19:55:36,29.4,-0.3,29.7,31.8,2.4,112
2011-04-24 20:00:36,29.3,-0.4,29.7,31.6,2.4,112
2011-04-24 20:05:36,29.1,-0.5,29.6,31.3,2.3,112
2011-04-24 20:10:36,28.9,-0.6,29.5,31.0,2.3,112
2011-04-24 20:15:36,28.8,-0.7,29.6,30.5,2.3,112
2011-04-24 20:20:36,28.7,-0.8,29.5,29.5,2.3,112
2011-04-24 20:25:36,28.5,-0.8,29.4,27.9,2.3,112
2011-04-24 20:30:36,28.4,-1.0,29.5,25.4,2.3,111
2011-04-24 20:35:36,27.9,-1.1,29.0,21.6,2.4,112
2011-04-24 20:40:36,28.3,-1.2,29.5,16.7,2.4,111
2011-04-24 20:45:36,28.3,-1.1,29.4,11.8,2.3,112
2011-04-24 20:50:36,28.2,-1.3,29.5,7.5,2.3,111
2011-04-24 20:55:36,28.1,-1.4,29.5,4.5,2.3,111
2011-04-24 21:00:36,28.0,-1.6,29.6,2.5,2.3,112
2011-04-24 21:05:36,27.9,-1.7,29.6,1.4,2.3,112
2011-04-24 21:10:36,27.9,-2.0,29.8,0.8,2.3,111
2011-04-24 21:15:36,27.8,-2.1,29.9,0.4,2.3,111
2011-04-24 21:20:36,27.7,-2.4,30.1,0.2,2.5,112
2011-04-24 21:25:36,27.6,-2.5,30.1,0.1,2.4,111
2011-04-24 21:30:36,27.5,-2.7,30.2,0.1,2.3,111
2011-04-24 21:35:36,27.4,-2.8,30.2,0.0,2.3,113
2011-04-24 21:40:36,27.3,-3.0,30.3,0.0,2.3,112
2011-04-24 21:45:36,27.2,-3.1,30.4,0.0,2.3,112
2011-04-24 21:50:36,27.2,-3.1,30.3,0.0,2.3,112
2011-04-24 21:55:36,27.0,-3.3,30.3,0.0,2.3,112
2011-04-24 22:00:36,27.0,-3.4,30.4,0.0,2.3,112
2011-04-24 22:05:36,26.9,-3.5,30.4,0.0,2.3,111
2011-04-24 22:10:36,26.8,-3.5,30.3,0.0,2.3,112
2011-04-24 22:15:36,26.7,-3.7,30.4,0.0,2.3,112
2011-04-24 22:20:36,26.6,-3.8,30.4,0.0,2.3,111
2011-04-24 22:25:36,26.4,-3.9,30.3,0.0,2.3,112
2011-04-24 22:30:36,26.2,-4.1,30.3,0.0,2.3,112
2011-04-24 22:35:36,26.1,-4.2,30.4,0.0,2.3,113
2011-04-24 22:40:36,26.1,-4.3,30.4,0.0,2.3,112
2011-04-24 22:45:36,26.0,-4.4,30.4,0.0,2.3,112
2011-04-24 22:50:36,25.9,-4.5,30.4,0.0,2.3,112
2011-04-24 22:55:36,25.8,-4.6,30.4,0.0,2.3,112
2011-04-24 23:00:36,25.7,-4.8,30.5,0.0,2.3,111
2011-04-24 23:05:36,25.7,-5.0,30.6,0.0,2.4,112
2011-04-24 23:10:36,25.6,-5.1,30.7,0.0,2.6,111
2011-04-24 23:15:36,25.5,-5.1,30.6,0.0,2.5,111
2011-04-24 23:20:36,25.4,-5.1,30.5,0.0,2.4,112
2011-04-24 23:25:36,25.3,-5.2,30.5,0.0,2.3,111
2011-04-24 23:30:36,25.2,-5.4,30.6,0.0,2.3,112
2011-04-24 23:35:36,25.1,-5.8,30.9,0.0,2.3,111
2011-04-24 23:40:36,25.0,-6.1,31.1,0.0,2.3,111
2011-04-24 23:45:36,24.9,-6.1,31.1,0.0,2.3,111
2011-04-24 23:50:36,24.8,-6.2,31.1,0.0,2.3,112
2011-04-24 23:55:36,24.8,-6.3,31.1,0.0,2.2,113
